User: anonymous   Login
Location: Unspecified
(0.0000°N, 0.0000°E)
Time: 13:05:59
(UTC+00:00)
Language:

WGS F3 (USA 211) - Orbit

View from above orbital plane
View from above orbital plane
View from above satellite
View from above satellite

Ground track
Ground track

The orbit data is extracted from the following two-line orbital elements,

1 36108U 09068A   16008.60120695 0.00000000  00000-0  00000-0 0    08
2 36108   0.0347 311.9469 0004996   7.1412 352.8935  1.00270000    05
Epoch (UTC): 08 January 2016 14:25:44
Eccentricity: 0.0004996
inclination: 0.0347°
perigee height: 35765 km
apogee height: 35808 km
right ascension of ascending node: 311.9469°
argument of perigee: 7.1412°
revolutions per day: 1.00270000
mean anomaly at epoch: 352.8935°
orbit number at epoch: 0

The dashed part of the orbit path shows where the satellite is in the earth's shadow,  

DLR